Date String (YYYY-MM-DD hh:mm:ss) UTC,Instrument flags,Ambient pressure (hPa),Sample flow (lpm),Bypass flow (lpm),Sample temperature (°C),Ambient temperature (°C),ASC tube jacket temperature (°C),LED temperature (°C),Box temperature (°C),Sample RH (%),Span deviation,Mass concentration (μg/m³),Mass concentration (μg/m³),Mass concentration (μg/m³)
DateTimeUTC,F1_M11,P_M11,Q1_M11,Q2_M11,T1_M11,T2_M11,T3_M11,T4_M11,T5_M11,U1_M11,ZSPAN_M11,X0_M11,X2_M11,X1_M11
2021-08-23 11:00:00,,0826.8,4.99,0.00,29.1,28.5,00.0,38.2,30.8,21.2,0002.7,0023.75,0018.05,0017.05
2021-08-23 11:01:00,,0826.8,5.00,0.00,29.1,28.5,00.0,38.2,30.8,21.2,0002.6,0024.18,0018.08,0017.07
2021-08-23 11:02:00,,0826.9,5.00,0.00,29.1,28.5,00.0,38.2,30.8,21.2,0002.8,0023.79,0018.07,0017.07
2021-08-23 11:03:00,,0826.8,5.00,0.00,29.1,28.5,00.0,38.2,30.8,21.2,0002.7,0024.09,0018.08,0017.08
2021-08-23 11:04:00,,0826.8,5.00,0.00,29.0,28.5,00.0,38.2,30.8,21.2,0002.5,0024.41,0018.09,0017.09
2021-08-23 11:05:00,,0826.8,5.00,0.00,29.0,28.4,00.0,38.2,30.8,21.2,0002.6,0024.49,0018.06,0017.08
2021-08-23 11:06:00,,0826.8,4.99,0.00,29.0,28.4,00.0,38.2,30.8,21.2,0002.6,0023.99,0018.00,0017.05
2021-08-23 11:07:00,,0826.7,5.00,0.00,29.0,28.4,00.0,38.2,30.8,21.2,0002.7,0024.09,0017.97,0017.02
2021-08-23 11:08:00,,0826.8,5.00,0.00,29.0,28.4,00.0,38.2,30.8,21.1,0002.8,0023.86,0017.88,0016.92
2021-08-23 11:09:00,,0826.8,5.00,0.00,29.0,28.4,00.0,38.2,30.8,21.1,0002.9,0023.75,0017.80,0016.85
2021-08-23 11:10:00,,0826.8,4.99,0.00,29.0,28.4,00.0,38.2,30.8,21.2,0002.8,0023.82,0017.73,0016.78
2021-08-23 11:11:00,,0826.8,5.01,0.00,29.0,28.4,00.0,38.2,30.8,21.2,0002.7,0023.76,0017.65,0016.69
2021-08-23 11:12:00,,0826.8,4.99,0.00,29.0,28.4,00.0,38.2,30.8,21.2,0002.8,0023.41,0017.58,0016.62
2021-08-23 11:13:00,,0826.8,4.99,0.00,29.0,28.4,00.0,38.2,30.8,21.1,0002.6,0023.19,0017.52,0016.59
2021-08-23 11:14:00,,0826.8,5.00,0.00,29.0,28.4,00.0,38.2,30.8,21.0,0002.4,0022.99,0017.39,0016.50
2021-08-23 11:15:00,,0826.8,5.00,0.00,29.0,28.5,00.0,38.2,30.8,20.9,0002.3,0023.29,0017.30,0016.42
2021-08-23 11:16:00,,0826.7,5.01,0.00,29.0,28.5,00.0,38.2,30.8,20.9,0002.0,0024.13,0017.25,0016.37
2021-08-23 11:17:00,,0826.7,5.00,0.00,29.1,28.5,00.0,38.2,30.8,21.0,0002.1,0024.16,0017.22,0016.35
2021-08-23 11:18:00,,0826.8,5.00,0.00,29.1,28.5,00.0,38.2,30.8,21.0,0001.9,0023.99,0017.18,0016.32
2021-08-23 11:19:00,,0826.7,4.99,0.00,29.1,28.5,00.0,38.2,30.8,20.8,0001.8,0024.02,0017.17,0016.30
2021-08-23 11:20:00,,0826.7,5.01,0.00,29.1,28.5,00.0,38.2,30.8,20.8,0001.9,0024.44,0017.18,0016.27
2021-08-23 11:21:00,,0826.7,5.00,0.00,29.1,28.5,00.0,38.2,30.8,20.9,0002.1,0025.54,0017.16,0016.24
2021-08-23 11:22:00,,0826.7,5.01,0.00,29.1,28.5,00.0,38.2,30.8,20.8,0002.0,0025.68,0017.15,0016.21
2021-08-23 11:23:00,,0826.7,4.98,0.00,29.1,28.5,00.0,38.2,30.9,20.8,0002.0,0026.62,0017.11,0016.16
2021-08-23 11:24:00,,0826.7,5.02,0.00,29.1,28.5,00.0,38.2,30.9,20.6,0002.1,0026.65,0017.10,0016.11
2021-08-23 11:25:00,,0826.7,5.00,0.00,29.1,28.5,00.0,38.2,30.9,20.6,0002.2,0026.48,0017.10,0016.07
2021-08-23 11:26:00,,0826.7,5.01,0.00,29.1,28.5,00.0,38.2,30.9,20.7,0002.4,0026.09,0017.09,0016.05
2021-08-23 11:27:00,,0826.7,4.99,0.00,29.1,28.5,00.0,38.2,30.8,20.7,0002.6,0025.02,0017.09,0016.04
2021-08-23 11:28:00,,0826.7,5.00,0.00,29.1,28.5,00.0,38.2,30.9,20.6,0002.6,0024.97,0017.04,0015.98
2021-08-23 11:29:00,,0826.7,5.00,0.00,29.1,28.5,00.0,38.2,30.8,20.5,0002.7,0024.84,0016.92,0015.88
2021-08-23 11:30:00,,0826.7,4.98,0.00,29.1,28.5,00.0,38.2,30.9,20.6,0002.5,0024.74,0016.83,0015.79
2021-08-23 11:31:00,,0826.7,4.99,0.00,29.1,28.5,00.0,38.2,30.9,20.6,0002.3,0024.55,0016.77,0015.74
2021-08-23 11:32:00,,0826.7,5.00,0.00,29.1,28.5,00.0,38.2,30.9,20.5,0002.0,0022.93,0016.64,0015.63
2021-08-23 11:33:00,,0826.7,5.01,0.00,29.1,28.5,00.0,38.2,30.9,20.6,0002.1,0022.57,0016.53,0015.52
2021-08-23 11:34:00,,0826.7,5.00,0.00,29.1,28.5,00.0,38.2,30.9,20.6,0002.3,0021.43,0016.41,0015.44
2021-08-23 11:35:00,,0826.7,5.01,0.00,29.1,28.4,00.0,38.2,30.9,20.6,0002.1,0021.22,0016.29,0015.34
2021-08-23 11:36:00,,0826.7,5.00,0.00,29.1,28.5,00.0,38.2,30.9,20.6,0002.2,0021.19,0016.21,0015.30
2021-08-23 11:37:00,,0826.8,5.00,0.00,29.1,28.5,00.0,38.2,30.9,20.5,0002.0,0020.74,0016.19,0015.25
2021-08-23 11:38:00,,0826.7,5.00,0.00,29.1,28.5,00.0,38.2,30.8,20.5,0002.0,0020.54,0016.08,0015.18
2021-08-23 11:39:00,,0826.7,5.00,0.00,29.1,28.5,00.0,38.2,30.8,20.4,0002.1,0020.69,0015.95,0015.11
2021-08-23 11:40:00,,0826.8,5.01,0.00,29.1,28.5,00.0,38.2,30.8,20.4,0002.1,0020.71,0015.93,0015.04
2021-08-23 11:41:00,,0826.8,4.98,0.00,29.1,28.4,00.0,38.2,30.8,20.4,0002.1,0020.87,0015.94,0014.98
2021-08-23 11:42:00,,0826.8,5.00,0.00,29.1,28.4,00.0,38.2,30.8,20.3,0002.2,0020.67,0015.84,0014.91
2021-08-23 11:43:00,,0826.8,5.01,0.00,29.0,28.4,00.0,38.2,30.8,20.4,0002.4,0020.88,0015.83,0014.88
2021-08-23 11:44:00,,0826.8,4.98,0.00,29.0,28.5,00.0,38.2,30.8,20.4,0002.2,0021.36,0015.76,0014.85
2021-08-23 11:45:00,,0826.8,5.02,0.00,29.0,28.4,00.0,38.2,30.8,20.5,0001.9,0021.32,0015.70,0014.79
2021-08-23 11:46:00,,0826.8,5.01,0.00,29.0,28.4,00.0,38.2,30.8,20.6,0001.9,0021.19,0015.68,0014.76
2021-08-23 11:47:00,,0826.9,5.00,0.00,29.0,28.4,00.0,38.2,30.8,20.7,0002.0,0021.11,0015.62,0014.68
2021-08-23 11:48:00,,0826.8,5.00,0.00,29.0,28.4,00.0,38.2,30.8,20.7,0002.0,0021.61,0015.53,0014.62
2021-08-23 11:49:00,,0826.8,5.01,0.00,29.0,28.4,00.0,38.2,30.8,20.6,0001.8,0022.08,0015.53,0014.56
2021-08-23 11:50:00,,0826.8,5.00,0.00,29.0,28.5,00.0,38.2,30.8,21.1,0001.7,0021.85,0015.51,0014.50
2021-08-23 11:51:00,,0826.8,5.00,0.00,29.1,28.5,00.0,38.2,30.8,21.0,0001.5,0021.81,0015.47,0014.50
2021-08-23 11:52:00,,0826.8,5.00,0.00,29.1,28.5,00.0,38.2,30.8,20.2,0001.6,0021.57,0015.37,0014.44
2021-08-23 11:53:00,,0826.8,5.00,0.00,29.1,28.5,00.0,38.2,30.8,20.1,0001.8,0021.62,0015.32,0014.39
2021-08-23 11:54:00,,0826.8,5.00,0.00,29.0,28.4,00.0,38.2,30.8,20.2,0001.6,0021.61,0015.21,0014.29
2021-08-23 11:55:00,,0826.8,5.00,0.00,29.1,28.5,00.0,38.2,30.8,20.3,0001.6,0021.34,0015.10,0014.21
2021-08-23 11:56:00,,0827.0,5.00,0.00,29.1,28.5,00.0,38.2,30.8,20.2,0001.7,0022.15,0014.97,0014.09
2021-08-23 11:57:00,,0827.2,5.00,0.00,29.1,28.5,00.0,38.2,30.8,19.9,0001.6,0022.46,0014.80,0013.94
2021-08-23 11:58:00,,0827.0,4.99,0.00,29.1,28.5,00.0,38.2,30.8,19.9,0001.4,0022.27,0014.63,0013.79
2021-08-23 11:59:00,,0827.0,5.00,0.00,29.0,28.4,00.0,38.2,30.8,19.9,0001.5,0021.47,0014.48,0013.63
